{"data":{"norad_id":64831,"epoch":"2026-05-25T04:24:21.125376Z","epoch_age_seconds":69861,"freshness":"FRESH","line1":"1 64831U 25151R   26145.18357784  .00000458  00000+0  89039-4 0  9996","line2":"2 64831  51.9029 309.8947 0000736 121.9746 238.1288 14.79931142 46807","mean_motion":14.79931142,"eccentricity":7.36e-5,"inclination_deg":51.9029,"raan_deg":309.8947,"arg_perigee_deg":121.9746,"mean_anomaly_deg":238.1288,"bstar":8.9039e-5,"rev_number":4680,"period_min":97.301824330419,"perigee_km":629.02572928953,"apogee_km":630.05725956391,"semimajor_km":7007.6784944267,"source":"CELESTRAK","updated_at":"2026-05-25T13:38:04.825783Z"}}